Weather History for KMDS - January, 2014

Change the Weather History Date:

Sunday, January 19, 2014

  Actual Average Record
Temperature  
Mean Temperature 34 °F -  
Max Temperature 44 °F 24 °F 44 °F (2014)
Min Temperature 23 °F 2 °F -18 °F (2011)
Degree Days  
Heating Degree Days 32    
Moisture  
Dew Point 29 °F    
Average Humidity 83    
Maximum Humidity 100    
Minimum Humidity 53    
Precipitation  
Precipitation 0.00 in - - ()
Sea Level Pressure  
Sea Level Pressure 29.67 in    
Wind  
Wind Speed 17 mph (West)    
Max Wind Speed 28 mph    
Max Gust Speed 38 mph    
Visibility 10 miles    
Events      
Averages and records for this station are not official NWS values.
T = Trace of Precipitation, MM = Missing Value Source: NWS Daily Summary

Daily Weather History Graph

Daily Weather History Graph

Search for Another Location

Airport or City:

Trip Planner

Search our weather history database for the weather conditions in past years. The results will help you decide how hot, cold, wet, or windy it might be!

Date:

Astronomy

Jan. 19, 2014 Rise Set
Actual Time 7:57 AM CST 5:21 PM CST
Civil Twilight 7:25 AM CST 5:52 PM CST
Nautical Twilight 6:50 AM CST 6:28 PM CST
Astronomical Twilight 6:15 AM CST 7:02 PM CST
Moon 9:09 PM CST (1/19) 9:19 AM CST (1/19)
Length of Visible Light 10h 27m
Length of Day
9h 23m
Waning Gibbous, 89% of the Moon is Illuminated
Jan 19
Waning Gibbous
Jan 23
Last Quarter
Jan 30
New
Feb 6
First Quarter
Feb 14
Full

Hourly Weather History & Observations

Time (CST) Temp. Windchill Dew Point Humidity Pressure Visibility Wind Dir Wind Speed Gust Speed Precip Events Conditions
12:05 AM 23.0 °F 8.7 °F 23.0 °F 100% 29.79 in 10.0 mi WSW 18.4 mph 23.0 mph N/A   Clear
12:25 AM 24.8 °F 11.1 °F 24.8 °F 100% 29.77 in 10.0 mi WSW 18.4 mph 25.3 mph N/A   Clear
12:45 AM 24.8 °F 11.5 °F 24.8 °F 100% 29.77 in 10.0 mi WSW 17.3 mph 24.2 mph N/A   Clear
1:05 AM 23.0 °F 10.1 °F 23.0 °F 100% 29.76 in 10.0 mi WSW 15.0 mph 23.0 mph N/A   Clear
1:25 AM 24.8 °F 11.9 °F 24.8 °F 100% 29.74 in 10.0 mi WSW 16.1 mph 20.7 mph N/A   Clear
1:45 AM 23.0 °F 10.1 °F 23.0 °F 100% 29.73 in 10.0 mi WSW 15.0 mph 20.7 mph N/A   Clear
2:05 AM 24.8 °F 11.9 °F 24.8 °F 100% 29.72 in 10.0 mi WSW 16.1 mph 21.9 mph N/A   Clear
2:25 AM 24.8 °F 12.4 °F 24.8 °F 100% 29.71 in 10.0 mi WSW 15.0 mph - N/A   Clear
2:45 AM 26.6 °F 14.3 °F 24.8 °F 93% 29.70 in 10.0 mi WSW 16.1 mph 21.9 mph N/A   Clear
3:05 AM 28.4 °F 16.2 °F 24.8 °F 86% 29.69 in 10.0 mi WSW 17.3 mph - N/A   Clear
3:25 AM 28.4 °F 16.2 °F 24.8 °F 86% 29.69 in 10.0 mi WSW 17.3 mph 23.0 mph N/A   Clear
3:45 AM 28.4 °F 15.8 °F 24.8 °F 86% 29.68 in 10.0 mi WSW 18.4 mph 26.5 mph N/A   Clear
4:05 AM 28.4 °F 15.8 °F 23.0 °F 80% 29.68 in 10.0 mi WSW 18.4 mph 24.2 mph N/A   Clear
4:25 AM 26.6 °F 14.7 °F 23.0 °F 86% 29.67 in 10.0 mi WSW 15.0 mph - N/A   Clear
4:45 AM 26.6 °F 15.2 °F 23.0 °F 86% 29.67 in 10.0 mi West 13.8 mph 18.4 mph N/A   Clear
5:05 AM 28.4 °F 16.6 °F 23.0 °F 80% 29.66 in 10.0 mi West 16.1 mph 23.0 mph N/A   Clear
5:25 AM 28.4 °F 16.2 °F 23.0 °F 80% 29.65 in 10.0 mi West 17.3 mph 21.9 mph N/A   Clear
5:45 AM 28.4 °F 18.0 °F 23.0 °F 80% 29.64 in 10.0 mi West 12.7 mph 17.3 mph N/A   Clear
6:05 AM 28.4 °F 16.6 °F 24.8 °F 86% 29.64 in 10.0 mi West 16.1 mph - N/A   Clear
6:25 AM 30.2 °F 18.1 °F 24.8 °F 80% 29.63 in 10.0 mi West 18.4 mph 24.2 mph N/A   Clear
6:45 AM 30.2 °F 18.5 °F 24.8 °F 80% 29.61 in 10.0 mi West 17.3 mph 24.2 mph N/A   Clear
7:05 AM 32.0 °F 21.2 °F 24.8 °F 75% 29.62 in 10.0 mi West 16.1 mph 24.2 mph N/A   Clear
7:25 AM 30.2 °F 18.1 °F 24.8 °F 80% 29.62 in 10.0 mi West 18.4 mph 23.0 mph N/A   Clear
7:45 AM 30.2 °F 18.9 °F 24.8 °F 80% 29.62 in 10.0 mi West 16.1 mph 23.0 mph N/A   Clear
8:05 AM 30.2 °F 19.3 °F 24.8 °F 80% 29.61 in 10.0 mi West 15.0 mph 20.7 mph N/A   Clear
8:25 AM 30.2 °F 20.2 °F 24.8 °F 80% 29.61 in 10.0 mi West 12.7 mph - N/A   Clear
8:45 AM 30.2 °F 19.8 °F 26.6 °F 86% 29.61 in 10.0 mi WSW 13.8 mph 18.4 mph N/A   Clear
9:05 AM 32.0 °F 22.5 °F 26.6 °F 80% 29.61 in 10.0 mi West 12.7 mph - N/A   Clear
9:25 AM 32.0 °F 22.1 °F 26.6 °F 80% 29.61 in 10.0 mi West 13.8 mph 20.7 mph N/A   Clear
9:45 AM 33.8 °F 24.8 °F 26.6 °F 75% 29.62 in 10.0 mi West 12.7 mph 19.6 mph N/A   Clear
10:05 AM 35.6 °F 25.9 °F 26.6 °F 70% 29.61 in 10.0 mi West 16.1 mph 21.9 mph N/A   Clear
10:25 AM 35.6 °F 25.9 °F 26.6 °F 70% 29.61 in 10.0 mi West 16.1 mph 23.0 mph N/A   Clear
10:45 AM 35.6 °F 26.2 °F 28.4 °F 75% 29.61 in 10.0 mi West 15.0 mph 19.6 mph N/A   Clear
11:05 AM 37.4 °F 28.2 °F 28.4 °F 70% 29.60 in 10.0 mi West 16.1 mph 20.7 mph N/A   Clear
11:25 AM 39.2 °F 30.5 °F 28.4 °F 65% 29.58 in 10.0 mi West 16.1 mph 21.9 mph N/A   Clear
11:45 AM 39.2 °F 30.2 °F 28.4 °F 65% 29.58 in 10.0 mi West 17.3 mph 23.0 mph N/A   Clear
12:05 PM 39.2 °F 30.2 °F 30.2 °F 70% 29.57 in 10.0 mi West 17.3 mph 24.2 mph N/A   Clear
12:25 PM 41.0 °F 31.6 °F 30.2 °F 65% 29.57 in 10.0 mi West 20.7 mph 27.6 mph N/A   Clear
12:45 PM 42.8 °F 33.5 °F 28.4 °F 57% 29.57 in 10.0 mi WNW 23.0 mph 28.8 mph N/A   Clear
1:05 PM 44.6 °F 35.9 °F 28.4 °F 53% 29.57 in 10.0 mi WNW 23.0 mph 29.9 mph N/A   Clear
1:25 PM 42.8 °F 33.3 °F 30.2 °F 61% 29.56 in 10.0 mi WNW 24.2 mph 29.9 mph N/A   Clear
1:45 PM 42.8 °F 32.9 °F 30.2 °F 61% 29.56 in 10.0 mi WNW 26.5 mph 34.5 mph N/A   Clear
2:05 PM 41.0 °F 31.1 °F 32.0 °F 70% 29.57 in 10.0 mi WNW 23.0 mph 34.5 mph N/A   Clear
2:25 PM 41.0 °F 30.5 °F 32.0 °F 70% 29.58 in 10.0 mi WNW 26.5 mph 34.5 mph N/A   Clear
2:45 PM 41.0 °F 30.2 °F 32.0 °F 70% 29.58 in 10.0 mi NW 27.6 mph 38.0 mph N/A   Clear
3:05 PM 41.0 °F 30.2 °F 32.0 °F 70% 29.60 in 10.0 mi WNW 27.6 mph 35.7 mph N/A   Clear
3:25 PM 39.2 °F 28.7 °F 32.0 °F 75% 29.61 in 10.0 mi NW 23.0 mph 32.2 mph N/A   Clear
3:45 PM 39.2 °F 28.5 °F 32.0 °F 75% 29.62 in 10.0 mi NW 24.2 mph 29.9 mph N/A   Clear
4:05 PM 39.2 °F 28.5 °F 32.0 °F 75% 29.63 in 10.0 mi NW 24.2 mph 29.9 mph N/A   Clear
4:25 PM 39.2 °F 29.0 °F 32.0 °F 75% 29.65 in 10.0 mi NW 21.9 mph 31.1 mph N/A   Clear
4:45 PM 37.4 °F 27.2 °F 32.0 °F 81% 29.66 in 10.0 mi NW 19.6 mph 32.2 mph N/A   Clear
5:05 PM 37.4 °F 26.9 °F 32.0 °F 81% 29.66 in 10.0 mi NW 20.7 mph 29.9 mph N/A   Clear
5:25 PM 37.4 °F 27.2 °F 32.0 °F 81% 29.67 in 10.0 mi NW 19.6 mph 29.9 mph N/A   Clear
5:45 PM 37.4 °F 26.9 °F 32.0 °F 81% 29.69 in 10.0 mi WNW 20.7 mph 27.6 mph N/A   Clear
6:05 PM 37.4 °F 27.8 °F 32.0 °F 81% 29.70 in 10.0 mi WNW 17.3 mph 24.2 mph N/A   Clear
6:25 PM 37.4 °F 27.5 °F 32.0 °F 81% 29.70 in 10.0 mi NW 18.4 mph 21.9 mph N/A   Clear
6:45 PM 37.4 °F 28.5 °F 32.0 °F 81% 29.72 in 10.0 mi NW 15.0 mph 23.0 mph N/A   Clear
7:05 PM 35.6 °F 26.2 °F 32.0 °F 87% 29.72 in 10.0 mi WNW 15.0 mph 20.7 mph N/A   Clear
7:25 PM 35.6 °F 26.2 °F 33.8 °F 93% 29.73 in 10.0 mi WNW 15.0 mph - N/A   Clear
7:45 PM 35.6 °F 27.5 °F 35.6 °F 100% 29.73 in 10.0 mi WNW 11.5 mph - N/A   Clear
8:05 PM 35.6 °F 28.6 °F 35.6 °F 100% 29.73 in 10.0 mi WNW 9.2 mph - N/A   Clear
8:25 PM 33.8 °F 24.8 °F 33.8 °F 100% 29.73 in 10.0 mi WNW 12.7 mph - N/A   Clear
8:45 PM 33.8 °F 24.8 °F 33.8 °F 100% 29.74 in 10.0 mi WNW 12.7 mph - N/A   Clear
9:05 PM 33.8 °F 23.9 °F 33.8 °F 100% 29.75 in 10.0 mi WNW 15.0 mph 19.6 mph N/A   Clear
9:25 PM 33.8 °F 24.3 °F 33.8 °F 100% 29.75 in 10.0 mi WNW 13.8 mph - N/A   Clear
9:45 PM 33.8 °F 23.9 °F 33.8 °F 100% 29.75 in 10.0 mi WNW 15.0 mph - N/A   Clear
10:05 PM 33.8 °F 24.3 °F 33.8 °F 100% 29.75 in 10.0 mi WNW 13.8 mph 19.6 mph N/A   Clear
10:25 PM 33.8 °F 23.9 °F 32.0 °F 93% 29.76 in 10.0 mi NW 15.0 mph - N/A   Clear
10:45 PM 32.0 °F 21.2 °F 32.0 °F 100% 29.76 in 10.0 mi NW 16.1 mph 19.6 mph N/A   Clear
11:05 PM 32.0 °F 21.6 °F 32.0 °F 100% 29.77 in 10.0 mi NW 15.0 mph 19.6 mph N/A   Clear
11:25 PM 33.8 °F 22.8 °F 32.0 °F 93% 29.77 in 10.0 mi NW 18.4 mph 24.2 mph N/A   Clear
11:45 PM 32.0 °F 21.2 °F 32.0 °F 100% 29.78 in 10.0 mi NW 16.1 mph 24.2 mph N/A   Clear